Location: Agua Amarilla
(10.0342°N, 66.8490°W)
Time: 04:39:38
(UTC+00:00)

Feng Yun 1-1 Rocket - Pass Details

Date: 26 June 2022
Orbit: 830 x 933 km, 99.2° (Epoch: 18 August)

Event Time Altitude Azimuth Distance (km) Brightness Sun altitude
Exits shadow 23:43:53 - 159° (SSE) 2,659 6.4 -12.5°
Reaches altitude 10° 23:44:28 10° 158° (SSE) 2,429 6.1 -12.6°
Maximum altitude 23:49:47 66° 76° (ENE) 902 4.2 -13.8°
Drops below altitude 10° 23:55:08 10° 355° (N) 2,444 7.0 -14.9°
Sets 23:57:31 0° 352° (N) 3,388 7.9 -15.5°
